• In Hungary
  • List of Countries
  • For 7 days
  • Water Temperature
  • Satellite Maps
  • Weather Map
  • News
  • Weather Widgets
  • user-avatar
    Login

    Hourly Weather Vysokoe

    Today, 26 May, Saturday

    Time Temperature Precipitation Wind Pressure Humidity
    00:00 +10°C° 0 mm 4 mps 754 mmHg 73%
    01:00 +9°C° 0 mm 3 mps 755 mmHg 74%
    02:00 +8°C° 0 mm 3 mps 755 mmHg 75%
    03:00 +7°C° 0 mm 2 mps 755 mmHg 81%
    04:00 +7°C° 0 mm 2 mps 756 mmHg 80%
    05:00 +8°C° 0 mm 3 mps 756 mmHg 78%
    06:00 +8°C° 0 mm 3 mps 757 mmHg 77%
    07:00 +10°C° 0 mm 3 mps 757 mmHg 70%
    08:00 +12°C° 0 mm 3 mps 758 mmHg 63%
    09:00 +13°C° 0 mm 4 mps 758 mmHg 53%
    10:00 +14°C° 0 mm 4 mps 758 mmHg 51%
    11:00 +15°C° 0 mm 4 mps 758 mmHg 49%
    12:00 +15°C° 0 mm 4 mps 758 mmHg 47%
    13:00 +17°C° 0 mm 3 mps 758 mmHg 47%
    14:00 +17°C° 0 mm 3 mps 758 mmHg 46%
    15:00 +18°C° 0 mm 3 mps 758 mmHg 45%
    16:00 +17°C° 0 mm 2 mps 758 mmHg 47%
    17:00 +17°C° 0 mm 2 mps 758 mmHg 49%
    18:00 +18°C° 0 mm 1 mps 757 mmHg 50%
    19:00 +15°C° 0 mm 1 mps 757 mmHg 55%
    20:00 +14°C° 0 mm 1 mps 757 mmHg 60%
    21:00 +12°C° 0 mm 1 mps 757 mmHg 64%
    22:00 +10°C° 0 mm 2 mps 758 mmHg 66%
    23:00 +10°C° 0 mm 2 mps 758 mmHg 68%

    Tomorrow, 27 May, Sunday

    Time Temperature Precipitation Wind Pressure Humidity
    00:00 +9°C° 0 mm 2 mps 758 mmHg 70%
    01:00 +8°C° 0 mm 2 mps 758 mmHg 72%
    02:00 +8°C° 0 mm 2 mps 758 mmHg 74%
    03:00 +8°C° 0 mm 2 mps 758 mmHg 75%
    04:00 +8°C° 0 mm 2 mps 758 mmHg 76%
    05:00 +8°C° 0 mm 2 mps 758 mmHg 76%
    06:00 +9°C° 0 mm 2 mps 757 mmHg 77%
    07:00 +11°C° 0 mm 3 mps 757 mmHg 72%
    08:00 +12°C° 0 mm 3 mps 757 mmHg 67%
    09:00 +14°C° 0 mm 3 mps 757 mmHg 62%
    10:00 +16°C° 0 mm 3 mps 756 mmHg 59%
    11:00 +17°C° 0 mm 4 mps 756 mmHg 56%
    12:00 +18°C° 0 mm 4 mps 756 mmHg 53%
    13:00 +19°C° 0 mm 4 mps 755 mmHg 53%
    14:00 +19°C° 0 mm 4 mps 754 mmHg 54%
    15:00 +20°C° 0 mm 5 mps 754 mmHg 54%
    16:00 +20°C° 0 mm 4 mps 753 mmHg 57%
    17:00 +19°C° 0 mm 4 mps 752 mmHg 60%
    18:00 +19°C° 0 mm 4 mps 752 mmHg 63%
    19:00 +18°C° 0 mm 4 mps 752 mmHg 68%
    20:00 +15°C° 0 mm 4 mps 752 mmHg 73%
    21:00 +13°C° 0 mm 3 mps 751 mmHg 78%
    22:00 +13°C° 0 mm 3 mps 751 mmHg 79%
    23:00 +13°C° 0 mm 4 mps 751 mmHg 79%

    Day after tomorrow, 28 May, Monday

    Time Temperature Precipitation Wind Pressure Humidity
    00:00 +12°C° 0 mm 4 mps 751 mmHg 80%
    01:00 +12°C° 0 mm 3 mps 752 mmHg 83%
    02:00 +11°C° 0 mm 3 mps 752 mmHg 86%
    03:00 +11°C° 0 mm 3 mps 752 mmHg 90%
    04:00 +11°C° 0 mm 3 mps 752 mmHg 89%
    05:00 +11°C° 0 mm 4 mps 753 mmHg 87%
    06:00 +11°C° 0 mm 4 mps 753 mmHg 86%
    07:00 +12°C° 0 mm 4 mps 754 mmHg 79%
    08:00 +13°C° 0 mm 4 mps 754 mmHg 72%
    09:00 +14°C° 0 mm 4 mps 754 mmHg 64%
    10:00 +15°C° 0 mm 4 mps 755 mmHg 59%
    11:00 +17°C° 0 mm 4 mps 755 mmHg 54%
    12:00 +17°C° 0 mm 5 mps 755 mmHg 49%
    13:00 +17°C° 0 mm 5 mps 755 mmHg 48%
    14:00 +17°C° 0 mm 5 mps 755 mmHg 46%
    15:00 +18°C° 0 mm 4 mps 755 mmHg 45%
    16:00 +18°C° 0 mm 4 mps 755 mmHg 48%
    17:00 +18°C° 0 mm 4 mps 755 mmHg 52%
    18:00 +17°C° 0 mm 3 mps 755 mmHg 55%
    19:00 +14°C° 0 mm 3 mps 755 mmHg 59%
    20:00 +12°C° 0 mm 3 mps 756 mmHg 62%
    21:00 +12°C° 0 mm 2 mps 756 mmHg 66%
    22:00 +10°C° 0 mm 2 mps 756 mmHg 67%
    23:00 +9°C° 0 mm 2 mps 756 mmHg 69%

    29 May, Tuesday

    Time Temperature Precipitation Wind Pressure Humidity
    00:00 +8°C° 0 mm 2 mps 757 mmHg 70%
    01:00 +9°C° 0 mm 1 mps 757 mmHg 71%
    02:00 +8°C° 0 mm 1 mps 757 mmHg 71%
    03:00 +7°C° 0 mm 0 mps 757 mmHg 72%
    04:00 +9°C° 0 mm 1 mps 757 mmHg 72%
    05:00 +9°C° 0 mm 1 mps 757 mmHg 72%
    06:00 +10°C° 0 mm 1 mps 757 mmHg 71%
    07:00 +12°C° 0 mm 1 mps 757 mmHg 66%
    08:00 +14°C° 0 mm 2 mps 757 mmHg 61%
    09:00 +16°C° 0 mm 2 mps 757 mmHg 55%
    10:00 +17°C° 0 mm 2 mps 756 mmHg 53%
    11:00 +18°C° 0 mm 2 mps 756 mmHg 50%
    12:00 +19°C° 0 mm 3 mps 755 mmHg 47%
    13:00 +20°C° 0 mm 3 mps 755 mmHg 48%
    14:00 +20°C° 0 mm 3 mps 754 mmHg 48%
    15:00 +21°C° 0 mm 3 mps 754 mmHg 48%
    16:00 +21°C° 0 mm 3 mps 753 mmHg 52%
    17:00 +20°C° 0 mm 3 mps 753 mmHg 56%
    18:00 +20°C° 0 mm 3 mps 752 mmHg 60%
    19:00 +18°C° 0 mm 3 mps 752 mmHg 65%
    20:00 +17°C° 0 mm 3 mps 751 mmHg 70%
    21:00 +14°C° 0 mm 3 mps 751 mmHg 75%
    22:00 +13°C° 0 mm 3 mps 750 mmHg 77%
    23:00 +13°C° 0 mm 3 mps 750 mmHg 78%

    30 May, Wednesday

    Time Temperature Precipitation Wind Pressure Humidity
    00:00 +12°C° 0 mm 3 mps 750 mmHg 80%
    01:00 +12°C° 0 mm 4 mps 749 mmHg 82%
    02:00 +12°C° 0 mm 4 mps 749 mmHg 84%
    03:00 +11°C° 0 mm 4 mps 749 mmHg 86%
    04:00 +12°C° 0 mm 4 mps 748 mmHg 86%
    05:00 +13°C° 0 mm 5 mps 748 mmHg 85%
    06:00 +13°C° 0 mm 5 mps 747 mmHg 84%
    07:00 +15°C° 0 mm 5 mps 747 mmHg 80%
    08:00 +16°C° 0 mm 6 mps 746 mmHg 77%
    09:00 +19°C° 0 mm 6 mps 746 mmHg 73%
    10:00 +20°C° 0 mm 6 mps 745 mmHg 69%
    11:00 +22°C° 0 mm 7 mps 745 mmHg 65%
    12:00 +23°C° 0 mm 7 mps 744 mmHg 61%
    13:00 +23°C° 0.3 mm 7 mps 743 mmHg 63%
    14:00 +23°C° 0.3 mm 8 mps 743 mmHg 65%
    15:00 +23°C° 0.3 mm 8 mps 742 mmHg 68%
    16:00 +22°C° 0.5 mm 8 mps 742 mmHg 71%
    17:00 +22°C° 0.5 mm 7 mps 741 mmHg 74%
    18:00 +21°C° 0.5 mm 6 mps 741 mmHg 77%
    19:00 +20°C° 0.1 mm 5 mps 741 mmHg 78%
    20:00 +17°C° 0.1 mm 5 mps 741 mmHg 80%
    21:00 +17°C° 0.1 mm 4 mps 741 mmHg 81%
    22:00 +15°C° 0 mm 4 mps 741 mmHg 81%
    23:00 +14°C° 0 mm 3 mps 741 mmHg 81%

    31 May, Thursday

    Time Temperature Precipitation Wind Pressure Humidity
    00:00 +12°C° 0 mm 3 mps 741 mmHg 81%
    01:00 +12°C° 0 mm 3 mps 741 mmHg 83%
    02:00 +11°C° 0 mm 3 mps 740 mmHg 84%
    03:00 +10°C° 0 mm 3 mps 740 mmHg 85%
    04:00 +10°C° 0 mm 4 mps 740 mmHg 84%
    05:00 +11°C° 0 mm 4 mps 740 mmHg 84%
    06:00 +11°C° 0 mm 4 mps 740 mmHg 83%
    07:00 +12°C° 0 mm 5 mps 740 mmHg 76%
    08:00 +14°C° 0 mm 5 mps 739 mmHg 70%
    09:00 +16°C° 0 mm 6 mps 739 mmHg 63%
    10:00 +14°C° 0.4 mm 6 mps 739 mmHg 67%
    11:00 +12°C° 0.4 mm 7 mps 740 mmHg 71%
    12:00 +11°C° 0.4 mm 8 mps 740 mmHg 75%
    13:00 +12°C° 0 mm 8 mps 740 mmHg 69%
    14:00 +12°C° 0 mm 8 mps 741 mmHg 63%
    15:00 +13°C° 0 mm 9 mps 741 mmHg 57%
    16:00 +12°C° 0 mm 8 mps 742 mmHg 60%
    17:00 +11°C° 0 mm 7 mps 742 mmHg 63%
    18:00 +10°C° 0 mm 6 mps 743 mmHg 67%
    19:00 +9°C° 0 mm 5 mps 743 mmHg 71%
    20:00 +10°C° 0 mm 4 mps 743 mmHg 76%
    21:00 +9°C° 0 mm 3 mps 744 mmHg 80%
    22:00 +8°C° 0 mm 3 mps 744 mmHg 83%
    23:00 +8°C° 0 mm 3 mps 744 mmHg 85%
    Show more